FW7556 Weather Reports


time (UTC)temp
F
wind
direction
speed
knots
gust
knots
rain 1hr
in
rain 24hr
in
rain mn
in
humidity
%
barometer
mb
20260503060227 39 74 0.0 0.0 0.00 0.00 0.00 76 1016.3
20260503054714 39 60 0.0 0.9 0.00 0.00 0.00 76 1016.5
20260503054211 39 90 0.0 0.0 0.00 0.00 0.00 76 1016.3
20260503053709 39 90 0.0 0.0 0.00 0.00 0.00 75 1016.3
20260503053207 39 75 0.0 0.9 0.00 0.00 0.00 75 1016.1
20260503052703 39 75 0.0 0.9 0.00 0.00 0.00 75 1016.0
20260503052200 39 90 0.0 0.0 0.00 0.00 0.00 75 1016.2
20260503051655 39 66 0.0 0.9 0.00 0.00 0.00 75 1016.3
20260503051153 39 54 0.0 0.9 0.00 0.00 0.00 75 1016.2
20260503050649 39 66 0.0 0.0 0.00 0.00 0.00 75 1016.1
20260503050146 40 66 0.0 0.9 0.00 0.00 0.00 74 1016.3
20260503045643 40 66 0.0 0.9 0.00 0.00 0.00 74 1016.1
20260503045140 40 75 0.0 0.9 0.00 0.00 0.00 74 1016.1
20260503044637 40 74 0.0 0.0 0.00 0.00 0.00 74 1016.1
20260503044135 40 74 0.0 0.0 0.00 0.00 0.00 74 1016.2
20260503043631 40 74 0.0 0.0 0.00 0.00 0.00 74 1016.0
20260503043128 40 74 0.0 0.0 0.00 0.00 0.00 73 1016.2
20260503042625 41 74 0.0 0.0 0.00 0.00 0.00 73 1015.7
20260503042120 41 74 0.0 0.0 0.00 0.00 0.00 73 1016.1
20260503041617 41 66 0.0 0.0 0.00 0.00 0.00 73 1015.9
20260503041115 41 66 0.0 0.0 0.00 0.00 0.00 73 1015.9
20260503040612 41 66 0.0 0.0 0.00 0.00 0.00 73 1015.8
20260503040110 41 66 0.0 0.0 0.00 0.00 0.00 72 1015.9
20260503035606 41 66 0.0 0.0 0.00 0.00 0.00 72 1015.7
20260503035104 42 66 0.0 0.0 0.00 0.00 0.00 72 1015.7
20260503034601 42 66 0.0 0.0 0.00 0.00 0.00 72 1015.6
20260503034058 42 66 0.0 0.0 0.00 0.00 0.00 72 1015.6
20260503033555 42 66 0.0 0.0 0.00 0.00 0.00 72 1015.5
20260503033053 42 66 0.0 0.0 0.00 0.00 0.00 72 1015.6
20260503032551 43 74 0.0 0.0 0.00 0.00 0.00 71 1015.5
20260503032049 43 82 0.0 0.0 0.00 0.00 0.00 71 1015.6
20260503031546 43 82 0.0 0.0 0.00 0.00 0.00 71 1015.3
20260503031043 43 82 0.0 0.0 0.00 0.00 0.00 71 1015.6
20260503030539 44 82 0.0 0.0 0.00 0.00 0.00 71 1015.5
20260503030037 44 82 0.0 0.0 0.00 0.00 0.00 71 1015.4
20260503025533 44 82 0.0 0.0 0.00 0.00 0.00 71 1015.4
20260503025031 44 82 0.0 0.0 0.00 0.00 0.00 70 1015.4
20260503024527 44 82 0.0 0.0 0.00 0.00 0.00 70 1015.2
20260503024025 44 82 0.0 0.0 0.00 0.00 0.00 70 1015.3
20260503023521 45 140 0.0 0.9 0.00 0.00 0.00 70 1015.4
20260503023019 45 29 0.0 0.0 0.00 0.00 0.00 70 1015.2
20260503022514 45 29 0.0 0.0 0.00 0.00 0.00 70 1015.3
20260503022009 45 23 0.0 0.0 0.00 0.00 0.00 69 1015.3
20260503021506 45 23 0.0 0.0 0.00 0.00 0.00 69 1015.2
20260503021003 46 23 0.0 0.0 0.00 0.00 0.00 68 1015.1
20260503020501 46 23 0.0 0.0 0.00 0.00 0.00 68 1015.0
20260503015957 46 23 0.0 0.0 0.00 0.00 0.00 68 1014.7
20260503015454 46 40 0.0 0.0 0.00 0.00 0.00 67 1015.0
20260503014950 46 40 0.0 0.0 0.00 0.00 0.00 67 1015.0
20260503014447 47 40 0.0 0.0 0.00 0.00 0.00 67 1014.8
20260503013945 47 40 0.0 0.0 0.00 0.00 0.00 67 1014.8
20260503013442 48 40 0.0 0.0 0.00 0.00 0.00 66 1014.4
20260503012939 48 40 0.0 0.0 0.00 0.00 0.00 66 1014.5
20260503012437 48 195 0.0 0.0 0.00 0.00 0.00 65 1014.5
20260503011933 48 195 0.0 0.0 0.00 0.00 0.00 65 1014.4
20260503011430 48 195 0.0 0.0 0.00 0.00 0.00 65 1014.1
20260503010927 49 7 0.0 0.9 0.00 0.00 0.00 64 1013.9
20260503010424 50 8 0.0 0.0 0.00 0.00 0.00 64 1013.8
20260503005921 50 66 0.0 0.0 0.00 0.00 0.00 63 1013.8
20260503005418 50 66 0.0 0.0 0.00 0.00 0.00 63 1013.7
20260503004915 51 165 0.0 0.0 0.00 0.00 0.00 63 1013.4
20260503004412 51 165 0.0 0.0 0.00 0.00 0.00 63 1013.7
20260503003909 51 165 0.0 0.0 0.00 0.00 0.00 62 1013.4
20260503003406 51 165 0.0 0.0 0.00 0.00 0.00 62 1013.6
20260503002903 52 165 0.0 0.9 0.00 0.00 0.00 62 1013.4
20260503002400 52 0 0.0 0.9 0.00 0.00 0.00 61 1013.6
20260503001856 52 180 0.0 0.0 0.00 0.00 0.00 61 1013.5
20260503001353 52 180 0.0 0.0 0.00 0.00 0.00 61 1013.4
20260503000851 52 195 0.0 0.0 0.00 0.00 0.00 60 1013.3
20260503000348 53 195 0.0 0.0 0.00 0.00 0.00 60 1013.2
20260502235844 53 195 0.0 0.0 0.00 0.00 0.00 59 1013.2
20260502235342 53 195 0.0 0.0 0.00 0.00 0.00 59 1013.0
20260502234838 53 195 0.0 0.0 0.00 0.00 0.00 58 1013.2
20260502234335 53 195 0.0 0.0 0.00 0.00 0.00 57 1012.9
20260502233832 54 195 0.0 0.0 0.00 0.00 0.00 57 1012.9
20260502233328 54 195 0.0 0.0 0.00 0.00 0.00 57 1012.8
20260502232825 54 195 0.0 0.0 0.00 0.00 0.00 56 1012.8
20260502232321 54 195 0.0 0.0 0.00 0.00 0.00 55 1012.5
20260502231818 54 195 0.0 0.0 0.00 0.00 0.00 55 1012.5
20260502231316 55 195 0.0 0.0 0.00 0.00 0.00 54 1012.6
20260502230814 55 195 0.0 0.0 0.00 0.00 0.00 54 1012.3
20260502230312 55 195 0.0 0.0 0.00 0.00 0.00 53 1012.6
20260502225808 55 195 0.0 0.0 0.00 0.00 0.00 52 1012.5
20260502225305 56 195 0.0 0.0 0.00 0.00 0.00 52 1012.6
20260502224802 56 180 0.0 0.0 0.00 0.00 0.00 51 1012.4
20260502224258 56 206 0.0 0.0 0.00 0.00 0.00 50 1012.4
20260502223756 56 199 0.0 0.0 0.00 0.00 0.00 50 1012.2
20260502223254 56 279 0.0 2.6 0.00 0.00 0.00 50 1012.3
20260502222751 56 101 2.6 2.6 0.00 0.00 0.00 50 1012.1
20260502222248 56 270 0.0 1.7 0.00 0.00 0.00 49 1011.9
20260502221743 56 187 0.9 0.9 0.00 0.00 0.00 50 1012.0
20260502221240 57 54 0.9 1.7 0.00 0.00 0.00 49 1012.0
20260502220736 57 246 0.0 0.9 0.00 0.00 0.00 48 1011.9
20260502220227 57 71 0.0 1.7 0.00 0.00 0.00 49 1011.9
20260502215724 57 90 0.0 0.0 0.00 0.00 0.00 48 1012.1
20260502215221 58 30 1.7 3.5 0.00 0.00 0.00 49 1011.8
20260502214718 57 240 0.9 2.6 0.00 0.00 0.00 49 1011.7
20260502214215 57 246 3.5 3.5 0.00 0.00 0.00 49 1011.8
20260502213713 57 221 1.7 3.5 0.00 0.00 0.00 49 1011.8
20260502213210 57 0 0.9 0.9 0.00 0.00 0.00 48 1011.8
20260502212708 57 270 0.0 1.7 0.00 0.00 0.00 48 1011.8
20260502212206 57 213 1.7 1.7 0.00 0.00 0.00 49 1011.8
20260502211702 57 180 0.0 3.5 0.00 0.00 0.00 49 1012.0
20260502211159 57 217 1.7 3.5 0.00 0.00 0.00 48 1011.7
20260502210656 57 195 0.0 2.6 0.00 0.00 0.00 49 1011.7
20260502210153 57 327 1.7 2.6 0.00 0.00 0.00 49 1011.9
20260502205650 57 285 0.0 1.7 0.00 0.00 0.00 48 1012.1
20260502205147 57 203 0.0 0.0 0.00 0.00 0.00 50 1012.0
20260502204644 57 180 0.0 2.6 0.00 0.00 0.00 49 1011.8
20260502204141 57 6 0.0 1.7 0.00 0.00 0.00 50 1012.0
20260502203638 57 201 2.6 3.5 0.00 0.00 0.00 49 1011.9
20260502203137 57 270 0.0 0.0 0.00 0.00 0.00 51 1011.9
20260502202631 56 261 0.0 1.7 0.00 0.00 0.00 50 1012.0
20260502202129 57 339 0.0 2.6 0.00 0.00 0.00 50 1012.2
20260502201625 56 353 0.9 1.7 0.00 0.00 0.00 50 1012.2
20260502201122 56 291 0.0 1.7 0.00 0.00 0.00 51 1012.6
20260502200618 56 111 0.0 1.7 0.00 0.00 0.00 50 1012.5
20260502200115 56 334 2.6 3.5 0.00 0.00 0.00 51 1012.5
20260502195614 56 0 0.0 0.9 0.00 0.00 0.00 51 1012.6
20260502195109 56 29 0.9 1.7 0.00 0.00 0.00 51 1012.8
20260502194606 56 337 0.0 0.9 0.00 0.00 0.00 51 1012.7
20260502194102 56 0 0.0 0.0 0.00 0.00 0.00 52 1012.8
20260502193600 55 77 0.0 1.7 0.00 0.00 0.00 52 1012.7
20260502193056 55 270 0.0 2.6 0.00 0.00 0.00 51 1012.8
20260502192552 55 20 0.9 1.7 0.00 0.00 0.00 52 1012.7
20260502192049 55 355 0.9 1.7 0.00 0.00 0.00 52 1012.7
20260502191546 55 328 0.0 1.7 0.00 0.00 0.00 51 1013.0
20260502191044 55 120 0.0 0.9 0.00 0.00 0.00 52 1013.0
20260502190541 55 282 0.0 2.6 0.00 0.00 0.00 52 1013.3
20260502190038 55 278 0.0 1.7 0.00 0.00 0.00 52 1013.3
20260502185533 54 278 0.0 1.7 0.00 0.00 0.00 52 1013.5
20260502185030 54 90 0.9 1.7 0.00 0.00 0.00 53 1013.3
20260502184526 54 270 0.9 2.6 0.00 0.00 0.00 53 1013.1
20260502184022 54 12 0.0 1.7 0.00 0.00 0.00 53 1013.5
20260502183518 54 270 0.9 3.5 0.00 0.00 0.00 53 1013.4
20260502183015 54 328 0.0 1.7 0.00 0.00 0.00 53 1013.4
20260502182509 54 117 0.0 2.6 0.00 0.00 0.00 53 1013.4
20260502182006 54 0 0.0 3.5 0.00 0.00 0.00 53 1013.0
20260502181504 54 117 0.0 0.9 0.00 0.00 0.00 54 1013.1
20260502181003 54 345 0.9 0.9 0.00 0.00 0.00 54 1013.2
20260502180459 54 140 0.0 1.7 0.00 0.00 0.00 53 1013.3
20260502170418 53 8 0.0 1.7 0.00 0.00 0.00 55 1013.5
20260502163901 53 286 0.0 2.6 0.00 0.00 0.00 57 1014.4
20260502163358 53 0 0.0 1.7 0.00 0.00 0.00 57 1014.5
20260502162856 53 356 1.7 1.7 0.00 0.00 0.00 57 1014.5
20260502162352 53 299 4.3 4.3 0.00 0.00 0.00 57 1014.8
20260502161849 52 261 0.0 2.6 0.00 0.00 0.00 57 1014.7
20260502161345 52 346 1.7 2.6 0.00 0.00 0.00 58 1014.9
20260502160843 52 328 2.6 4.3 0.00 0.00 0.00 58 1014.9
20260502160341 52 7 0.9 2.6 0.00 0.00 0.00 57 1015.1
20260502152316 52 220 1.7 1.7 0.00 0.00 0.00 60 1014.8
20260502151814 52 12 0.0 1.7 0.00 0.00 0.00 59 1014.8
20260502151310 52 255 0.9 1.7 0.00 0.00 0.00 59 1014.8
20260502150808 52 48 0.0 3.5 0.00 0.00 0.00 59 1014.7
20260502150304 52 254 0.0 3.5 0.00 0.00 0.00 59 1014.7
20260502130653 53 210 1.7 2.6 0.00 0.00 0.00 71 1014.3
20260502130151 53 0 0.9 1.7 0.00 0.00 0.00 72 1014.5
20260502123636 53 0 2.6 4.3 0.00 0.00 0.00 74 1013.6
20260502123133 53 117 1.7 2.6 0.00 0.00 0.00 75 1013.8
20260502122629 53 132 0.0 3.5 0.00 0.00 0.00 75 1013.8
20260502122126 53 270 0.0 2.6 0.00 0.00 0.00 76 1013.8
20260502121624 53 348 1.7 2.6 0.00 0.00 0.00 76 1013.9
20260502121121 53 0 0.0 0.9 0.00 0.00 0.00 76 1013.8
20260502120618 53 0 0.9 2.6 0.00 0.00 0.00 76 1013.6
20260502120115 53 319 1.7 2.6 0.00 0.00 0.00 76 1013.8
20260502115613 53 59 1.7 2.6 0.00 0.00 0.00 76 1013.8
20260502115108 53 328 0.9 3.5 0.00 0.00 0.00 77 1013.7
20260502114604 53 157 0.0 1.7 0.00 0.00 0.00 77 1013.7
20260502114102 53 29 1.7 2.6 0.00 0.00 0.00 77 1013.8
20260502113559 53 81 0.0 0.9 0.00 0.00 0.00 78 1013.8
20260502113058 53 90 0.0 1.7 0.00 0.00 0.00 78 1013.6
20260502112555 53 209 1.7 1.7 0.00 0.00 0.00 78 1013.6
20260502112052 52 261 0.0 1.7 0.00 0.00 0.00 78 1013.5
20260502111550 52 132 0.0 2.6 0.00 0.00 0.00 79 1013.4
20260502111047 52 345 0.0 1.7 0.00 0.00 0.00 79 1013.6
20260502110544 52 29 0.0 2.6 0.00 0.00 0.00 80 1013.5
20260502110042 52 172 0.0 1.7 0.00 0.00 0.00 80 1013.7
20260502105539 52 90 0.0 2.6 0.00 0.00 0.00 80 1013.5
20260502105037 51 0 0.0 0.0 0.00 0.00 0.00 80 1013.6
20260502104533 51 81 0.0 0.0 0.00 0.00 0.00 80 1013.5
20260502104031 51 81 0.0 1.7 0.00 0.00 0.00 80 1013.4
20260502103529 51 26 0.0 1.7 0.00 0.00 0.00 80 1013.4
20260502103027 51 355 0.0 0.0 0.00 0.00 0.00 80 1013.6
20260502102522 51 8 0.0 0.0 0.00 0.00 0.00 80 1013.7
20260502102020 51 8 0.0 0.0 0.00 0.00 0.00 80 1013.7
20260502101518 51 8 0.0 0.0 0.00 0.00 0.00 80 1013.8
20260502101016 51 8 0.0 0.0 0.00 0.00 0.00 80 1013.8
20260502100514 51 81 0.0 0.9 0.00 0.00 0.00 80 1013.8
20260502091448 51 0 0.0 0.0 0.00 0.00 0.00 80 1013.6
20260502090946 51 8 0.0 0.0 0.00 0.00 0.00 80 1013.5
20260502090442 51 8 0.0 0.0 0.00 0.00 0.00 80 1013.7
20260502071337 52 15 0.0 0.0 0.00 0.00 0.00 77 1012.7
20260502070835 52 15 0.0 0.0 0.00 0.00 0.00 77 1012.6
20260502070332 52 15 0.0 0.0 0.00 0.00 0.00 77 1012.7
20260502065831 52 15 0.0 0.0 0.00 0.00 0.00 77 1012.7
20260502065329 52 15 0.0 0.0 0.00 0.00 0.00 77 1012.5
20260502064827 52 15 0.0 0.0 0.00 0.00 0.00 77 1012.8
20260502064325 53 195 0.0 0.0 0.00 0.00 0.00 77 1012.8
20260502063822 53 195 0.0 0.0 0.00 0.00 0.00 76 1012.9
20260502063319 53 195 0.0 0.0 0.00 0.00 0.00 76 1012.8